Location: Cortos
(40.7190°N, 4.5893°W)
Time: 08:58:31
(UTC+00:00)

SPOT 5 - Pass Details

Date: 05 July 2020
Orbit: 622 x 815 km, 98.3° (Epoch: 08 August)

Event Time Altitude Azimuth Distance (km) Brightness Sun altitude
Exits shadow 21:13:56 17° 119° (ESE) 1,847 4.4 -12.9°
Maximum altitude 21:16:56 31° 69° (ENE) 1,298 4.0 -13.3°
Drops below altitude 10° 21:21:10 10° 8° (N) 2,209 5.9 -13.8°
Sets 21:23:35 0° 358° (N) 3,100 7.0 -14.1°
